Location: Huntsville
(41.2590°N, 111.7678°W)
Time: 08:48:55
(UTC+00:00)

Courier 1B - All Passes

Search period start: 25 September 2022 00:00
Search period end: 05 October 2022 00:00
Orbit: 962 x 1209 km, 28.3° (Epoch: 24 September)

Date Brightness Start Highest point End Pass type
(mag) Time Alt. Az. Time Alt. Az. Time Alt. Az.
25 Sep - 00:27:20 10° SSW 00:31:29 17° SSE 00:35:34 10° ESE daylight
25 Sep - 02:19:21 10° SW 02:24:33 25° S 02:29:42 10° ESE visible
25 Sep - 04:12:50 10° WSW 04:17:40 22° S 04:22:31 10° SE visible
25 Sep - 06:08:45 10° SW 06:10:37 11° SSW 06:12:30 10° S night (unlit)
25 Sep - 23:34:28 10° S 23:37:58 15° SSE 23:41:23 10° SE daylight
26 Sep - 01:25:51 10° SW 01:31:01 24° S 01:36:05 10° ESE daylight
26 Sep - 03:19:04 10° WSW 03:24:08 24° S 03:29:11 10° SE visible
26 Sep - 05:13:53 10° SW 05:17:08 14° SSW 05:20:25 10° S visible
26 Sep - 22:42:10 10° S 22:44:26 12° SSE 22:46:41 10° SE daylight
27 Sep - 00:32:25 10° SW 00:37:29 23° S 00:42:23 10° ESE daylight
27 Sep - 02:25:21 10° WSW 02:30:37 26° S 02:35:47 10° SE visible
27 Sep - 04:19:37 10° WSW 04:23:39 17° SSW 04:27:41 10° SSE visible
27 Sep - 23:39:05 10° SSW 23:43:55 20° SSE 23:48:37 10° ESE daylight
28 Sep - 01:31:40 10° SW 01:37:04 26° S 01:42:19 10° SE visible
28 Sep - 03:25:34 10° WSW 03:30:09 20° SSW 03:34:43 10° SSE visible
28 Sep - 22:45:54 10° SSW 22:50:22 18° SSE 22:54:41 10° ESE daylight
29 Sep - 00:38:01 10° SW 00:43:30 26° S 00:48:47 10° ESE daylight
29 Sep - 02:31:38 10° WSW 02:36:38 23° S 02:41:33 10° SE visible
29 Sep - 04:27:29 10° SW 04:29:34 12° SSW 04:31:40 10° S visible
29 Sep - 21:52:57 10° SSW 21:56:47 15° SSE 22:00:31 10° SE daylight
29 Sep - 23:44:26 10° SW 23:49:56 25° S 23:55:12 10° ESE daylight
30 Sep - 01:37:46 10° WSW 01:43:06 25° S 01:48:17 10° SE visible
30 Sep - 03:32:36 10° SW 03:36:06 15° SSW 03:39:34 10° SSE visible
30 Sep - 21:00:30 10° S 21:03:13 12° SSE 21:05:52 10° SE daylight
30 Sep - 22:50:54 10° SW 22:56:20 23° S 23:01:31 10° ESE daylight
01 Oct - 00:43:57 10° WSW 00:49:32 27° S 00:54:55 10° SE daylight
01 Oct - 02:38:16 10° WSW 02:42:37 18° SSW 02:46:52 10° SSE visible
01 Oct - 21:57:29 10° SSW 22:02:43 21° SSE 22:07:45 10° ESE daylight
01 Oct - 23:50:10 10° SW 23:55:57 27° S 00:01:29 10° SE daylight
02 Oct - 01:44:09 10° WSW 01:49:06 22° SSW 01:53:54 10° SSE visible
02 Oct - 21:04:15 10° SSW 21:09:06 19° SSE 21:13:47 10° ESE daylight
02 Oct - 22:56:27 10° SW 23:02:20 27° S 23:07:57 10° ESE daylight
03 Oct - 00:50:08 10° WSW 00:55:33 24° S 01:00:46 10° SE daylight
03 Oct - 02:45:46 10° SW 02:48:31 13° SSW 02:51:12 10° S visible
03 Oct - 20:11:16 10° SSW 20:15:28 16° SSE 20:19:34 10° SE daylight
03 Oct - 22:02:46 10° SW 22:08:41 26° S 22:14:20 10° ESE daylight
03 Oct - 23:56:11 10° WSW 00:01:59 27° S 00:07:29 10° SE daylight
04 Oct - 01:51:00 10° WSW 01:55:01 16° SSW 01:58:56 10° SSE visible
04 Oct - 19:18:48 10° S 19:21:51 13° SSE 19:24:50 10° SE daylight
04 Oct - 21:09:13 10° SW 21:15:02 24° SSE 21:20:37 10° ESE daylight
04 Oct - 23:02:18 10° WSW 23:08:21 28° S 23:14:06 10° SE daylight
